Location: Unspecified
(0.0000°N, 0.0000°E)
Time: 13:19:54
(UTC+00:00)

Envisat - Pass Details

Date: 13 September 2019
Orbit: 764 x 766 km, 98.1° (Epoch: 18 September)

Event Time Altitude Azimuth Distance (km) Brightness Sun altitude
Rises 18:29:53 0° 165° (SSE) 3,230 6.0 -8.5°
Reaches altitude 10° 18:32:12 10° 163° (SSE) 2,302 5.3 -9.0°
Maximum altitude 18:37:16 76° 78° (ENE) 789 2.9 -10.3°
Drops below altitude 10° 18:42:19 10° 353° (N) 2,291 5.6 -11.6°
Sets 18:44:37 0° 351° (N) 3,214 6.4 -12.1°
